Allensville, PA

8:07 AM EDT on July 30, 2015 (GMT -0400)
big valley | | Change Station
CLOSE
Current Station
Personal Weather Station
Location: Belleville, PA
Elevation: 873 ft
Nearby Weather Stations

Elev 873 ft 40.62 °N, 77.71 °W | Updated 9 minutes ago

Mostly Cloudy
Mostly Cloudy
74.1 °F
Feels Like 73 °F
N
0.0
Wind Variable Wind from WSW

Today
High -- | Low -- °F
--% Chance of Precip.
Yesterday
High -- | Low -- °F
Precip. -- in
6:05 AM 8:28 PM
Waxing Gibbous, 99% visible
Pressure 29.94 in
Visibility 1.0 miles
Clouds Mostly Cloudy 2000 ft
Mostly Cloudy 3200 ft
Overcast 4300 ft
Heat Index 73 °F
Dew Point 71 °F
Humidity 89%
Rainfall 0.00 in
Snow Depth Not available.
UV 0 out of 12
Pollen 6.20 out of 12
Air Quality Not available.
Flu Activity Not available.
SPECI KUNV 301205Z 00000KT 1SM +RA BKN020 BKN032 OVC043 22/21 A2994

More Conditions Fewer Conditions

Pressure 29.94 in
Visibility 1.0 miles
Clouds Mostly Cloudy 2000 ft
Mostly Cloudy 3200 ft
Overcast 4300 ft
Heat Index 73 °F
Dew Point 71 °F
Humidity 89%
Rainfall 0.00 in
Snow Depth Not available.
UV 0 out of 12
Pollen 6.20 out of 12
Air Quality Not available.
Flu Activity Not available.
SPECI KUNV 301205Z 00000KT 1SM +RA BKN020 BKN032 OVC043 22/21 A2994

More Conditions Fewer Conditions

10-Day Weather Forecast

×

Almanac

Astronomy

Jul. 30, 2015 Rise Set
Actual Time
Civil Twilight
Nautical Twilight
Astronomical Twilight
Moon
Length of Visible Light
Length of Day
Tomorrow will be .
, % of the Moon is Illuminated

Today's Extremes

State Highs State Lows

Community

WunderPhotos

Upload Photos

1,842,339 photos uploaded!

WunderBlogs® & News

Nearby

Air Quality

  Air Quality AQ Index Pollutant
Not available.

Snow Depth

Station Depth Elevation

Earthquake Activity

City Distance Mag. Time & Date
Minimum magnitude displayed is 2.5.

Coastal Water Temperatures

Place Temperature

Stations

Nearby Weather Stations

Station Location Temp. Windchill Dew Point Humidity Wind Precip. Elev Updated Type